[keps] orb09297.2l.amsat

Ray Hoad r.hoad at att.net
Sat Oct 24 19:33:04 PDT 2009


SB KEPS @ AMSAT  $ORB09297.N
2Line Orbital Elements 09297.AMSAT

HR AMSAT ORBITAL ELEMENTS FOR AMATEUR SATELLITES IN NASA FORMAT
FROM WA5QGD FORT WORTH,TX October 24, 2009
Send Subscribe/unsubscribe to KEPS at 
http://www.amsat.org/mailman/listinfo/keps
BID: ORB09297.N

DECODE 2-LINE ELSETS WITH THE FOLLOWING KEY:
1 AAAAAU 00  0  0 BBBBB.BBBBBBBB  .CCCCCCCC  00000-0  00000-0 0  DDDZ
2 AAAAA EEE.EEEE FFF.FFFF GGGGGGG HHH.HHHH III.IIII JJ.JJJJJJJJKKKKKZ
KEY: A-CATALOGNUM B-EPOCHTIME C-DECAY D-ELSETNUM E-INCLINATION F-RAAN
G-ECCENTRICITY H-ARGPERIGEE I-MNANOM J-MNMOTION K-ORBITNUM Z-CHECKSUM

TO ALL RADIO AMATEURS BT

AO-07
1 07530U 74089B   09297.61450316 -.00000027  00000-0  10000-3 0  6122
2 07530 101.4191 317.5055 0012112 015.7283 344.4162 12.53576887598933
FO-29
1 24278U 96046B   09296.60600480  .00000029  00000-0  65540-4 0 01760
2 24278 098.5311 153.2553 0350990 017.6266 343.6691 13.52946134651114
SO-33
1 25509U 98061B   09296.66512001  .00000132  00000-0  15771-4 0 05708
2 25509 031.4332 045.9876 0353891 021.8079 339.7192 14.28268138574210
RS-22
1 27939U 03042A   09296.68083358  .00000061  00000-0  20467-4 0  9200
2 27939 097.9204 166.7281 0014675 086.9218 273.3677 14.63349314324362
VO-52
1 28650U 05017B   09296.63683321 -.00000095  00000-0 -54769-5 0 03516
2 28650 097.7277 353.8665 0026549 332.3447 027.6349 14.81630781241669
SO-67
1 35870U 09049F   09297.80851693  .00000526  00000-0  25408-4 0  1091
2 35870 097.3679 347.1782 0012347 157.1810 310.1232 15.22821106  5643
AO-16
1 20439U 90005D   09296.92471688  .00000007  00000-0  17890-4 0 07357
2 20439 098.2966 259.5833 0011353 144.2361 215.9597 14.31836646031575
LO-19
1 20442U 90005G   09296.61132415 -.00000060  00000-0 -70389-5 0  6442
2 20442 098.2600 266.0468 0012551 141.7418 218.4639 14.32070418 31693
AO-27
1 22825U 93061C   09297.79636745  .00000058  00000-0  39531-4 0  3714
2 22825 098.4547 247.2352 0007636 239.7165 120.3269 14.29276393838422
IO-26
1 22826U 93061D   09297.83369807 -.00000010  00000-0  12751-4 0  1028
2 22826 098.4465 247.9654 0008112 235.8945 124.1469 14.29529172838539
GO-32
1 25397U 98043D   09297.71726895  .00000024  00000-0  28733-4 0   222
2 25397 098.3213 313.0894 0000777 183.7974 176.3194 14.23165473586558
NO-44
1 26931U 01043C   09297.71452613  .00000154  00000-0  92443-4 0  2961
2 26931 067.0512 090.6405 0006813 273.0105 087.0213 14.29571386421097
SO-50
1 27607U 02058C   09296.63923156  .00000013  00000-0  23938-4 0   150
2 27607 064.5602 354.9647 0051834 172.6899 187.4974 14.71467938367576
CO-55
1 27844U 03031E   09296.59722135  .00000048  00000-0  42520-4 0  6954
2 27844 098.7138 303.9611 0010425 130.1304 230.0784 14.20662064327490
CO-57
1 27848U 03031J   09297.57893075  .00000009  00000-0  24729-4 0  6474
2 27848 098.7178 303.9948 0010348 131.6885 228.5178 14.20460947327591
AO-51
1 28375U 04025K   09296.94023113  .00000011  00000-0  15638-4 0 05170
2 28375 098.0543 299.0596 0084812 093.8778 267.2110 14.40655855279494
CO-56
1 28941U 06005C   09297.68475575  .14491492  29743-5  25760-3 0  5565
2 28941 098.0955 138.9518 0011688 319.8691 040.7485 16.46998778207909
GENESAT1
1 29655U 06058C   09296.85376955  .00019650  00000-0  16974-3 0 08440
2 29655 040.0176 095.5052 0005151 008.0083 352.0824 15.68621820162668
CP3
1 31129U 07012N   09297.57371927  .00000130  00000-0  40927-4 0  2830
2 31129 097.9738 344.3554 0101385 244.2093 114.8636 14.52171994133662
CO-65
1 32785U 08021C   09296.18057247  .00000054  00000-0  13683-4 0 05143
2 32785 097.9314 358.9905 0014496 339.7035 020.3599 14.81529986080394
KKS-1
1 33493U 09002B   09297.70970045  .00000344  00000-0  51685-4 0  8766
2 33493 098.0680 050.5660 0019967 179.4831 180.6409 14.80753861 40636
SOHLA-1
1 33496U 09002E   09297.83313823  .00000037  00000-0  14490-4 0  8412
2 33496 098.0475 045.1820 0005547 225.2436 134.8312 14.69451211 40319
NOAA-10
1 16969U 86073A   09297.48724277 -.00000093  00000-0 -19867-4 0  8070
2 16969 098.6815 323.3768 0012241 176.2460 183.8820 14.27396643201950
NOAA-11
1 19531U 88089A   09297.33459616 -.00000213  00000-0 -87464-4 0  8244
2 19531 098.7806 025.2716 0012264 099.1015 261.1533 14.14904215 87784
NOAA-12
1 21263U 91032A   09297.74104283  .00000013  00000-0  24394-4 0  3090
2 21263 098.7731 305.8755 0013077 127.0481 233.1895 14.25597801958853
MET-3/5
1 21655U 91056A   09296.91677393  .00000051  00000-0  10000-3 0 06785
2 21655 082.5527 115.5731 0012731 216.6819 143.3433 13.17021368874574
MET-2/21
1 22782U 93055A   09297.76577199  .00000080  00000-0  59268-4 0  5999
2 22782 082.5453 079.2175 0022154 347.2215 012.8388 13.83639209815524
OKEAN-4
1 23317U 94066A   09297.73922453  .00000278  00000-0  31462-4 0   531
2 23317 082.5409 213.5813 0020886 301.1723 058.7480 14.82730870811563
NOAA-14
1 23455U 94089A   09297.68415762  .00000126  00000-0  90102-4 0  8023
2 23455 098.8994 014.8447 0009572 178.4089 181.7116 14.13772410764222
NOAA-15
1 25338U 98030A   09297.40961483  .00000075  00000-0  50713-4 0  1289
2 25338 098.5974 283.8679 0011314 046.1277 314.0830 14.24789496595175
RESURS
1 25394U 98043A   09297.64131879 -.00000014  00000-0  11526-4 0  3408
2 25394 098.3306 323.3361 0001101 151.9267 208.1971 14.24189019586825
FENGYUN1
1 25730U 99025A   09296.98000828  .00000546  00000-0  34549-3 0 09312
2 25730 098.7656 263.3463 0020907 209.9092 150.0885 14.08022815538448
OKEAN-0
1 25860U 99039A   09296.57601627  .00000006  00000-0  81864-5 0  8178
2 25860 097.8021 272.7640 0001638 089.1358 271.0037 14.73592751552051
NOAA-16
1 26536U 00055A   09297.42283027  .00000298  00000-0  18644-3 0  6089
2 26536 099.1795 304.2414 0009675 278.3757 081.6345 14.12537791468542
NOAA-17
1 27453U 02032A   09297.70150590  .00000045  00000-0  37868-4 0  6006
2 27453 098.4675 352.2062 0012862 105.9482 254.3114 14.24100746381180
NOAA-18
1 28654U 05018A   09297.71784120 -.00000168  00000-0 -68472-4 0   883
2 28654 098.9205 240.0210 0014325 001.6026 358.5184 14.11294712228221
NOAA-19
1 33591U 09005A   09297.72568942 -.00000159  00000-0 -64396-4 0  2931
2 33591 098.7597 240.1890 0013308 234.3887 125.6031 14.10994396 36702
HUBBLE
1 20580U 90037B   09295.79166678  .00000330  00000-0  12474-4 0  4666
2 20580 028.4708 349.4660 0003641 199.2731 160.7743 15.00842047869040
ISS
1 25544U 98067A   09297.75735653  .00025914  00000-0  17156-3 0  8474
2 25544 051.6432 001.4349 0006330 241.9070 215.5703 15.75334268626369
CO-58
1 28895U 05043F   09296.72074216  .00000181  00000-0  47353-4 0 04259
2 28895 098.0383 183.6041 0017338 308.7696 051.2023 14.59806225212481
FALCON
1 30776U 07006E   09296.67795794  .00000497  00000-0  38909-4 0 06895
2 30776 035.4337 039.7844 0002173 318.9592 041.0960 15.03338298144444
MAST
1 31126U 07012K   09297.79726635  .00000099  00000-0  33094-4 0  7141
2 31126 097.9726 346.5581 0093627 237.3676 121.8595 14.53524673133860
CAPE1
1 31130U 07012P   09296.72344178  .00000080  00000-0  29525-4 0  7252
2 31130 097.9752 343.4389 0101790 246.9820 112.0608 14.52096394133347
COMPASS
1 32787U 08021E   09297.22644294  .00000463  00000-0  65496-4 0  4989
2 32787 097.9278 359.8616 0015311 337.1613 022.8906 14.81676761 80556
AAUSAT2
1 32788U 08021F   09296.84585674  .00000043  00000-0  12192-4 0  4926
2 32788 097.9290 359.5666 0014951 339.6446 020.4116 14.81801656 80508
DO-64
1 32789U 08021G   09297.74502076  .00000674  00000-0  91950-4 0  5089
2 32789 097.9329 000.7067 0015185 334.5189 025.5272 14.81826495 80631
CO-66
1 32791U 08021J   09297.82486167  .00000578  00000-0  80389-4 0  4900
2 32791 097.9302 000.4863 0015763 333.4297 026.6103 14.81496984 80604
RS-30
1 32953U 08025A   09296.73158952  .00000010  00000-0  00000-0 0 04360
2 32953 082.5044 176.6969 0018112 260.3567 099.5467 12.43003062064363
TACSAT-3
1 35001U 09028A   09296.88252877  .00003056  00000-0  81616-4 0  1263
2 35001 040.4547 190.7883 0022883 035.5837 324.6519 15.39381046 24180
PHARMSAT
1 35002U 09028B   09296.86983806  .00002865  00000-0  74906-4 0  1222
2 35002 040.4681 189.9522 0026441 039.7984 320.4776 15.40115725 24183
HAWKSAT1
1 35003U 09028C   09297.78085840  .00006760  00000-0  16355-3 0  1294
2 35003 040.4599 183.5241 0025950 050.1029 310.2120 15.41035834 24342
CP6
1 35004U 09028D   09297.77772542  .00007571  00000-0  18185-3 0  1223
2 35004 040.4594 183.5019 0025321 049.8265 310.5262 15.41148409 24332
AEROCUB3
1 35005U 09028E   09296.82542835  .00006122  00000-0  14947-3 0 01255
2 35005 040.4739 189.6749 0024974 040.5256 319.7544 15.40901194024186
DRAGNSAT
1 35690U 09038B   09296.59854224  .00037857  00000-0  16146-3 0 00833
2 35690 051.6421 002.0464 0005859 043.0098 317.1403 15.84796896013478
POLLUX
1 35693U 09038E   09296.63243241  .00031987  00000-0  14286-3 0 00844
2 35693 051.6408 002.2857 0005006 001.1004 359.0195 15.83921768013447
CASTOR
1 35694U 09038F   09297.50125984  .00018186  00000-0  90380-4 0   807
2 35694 051.6414 358.3576 0004777 002.8963 357.2711 15.82028126 13577
METEOR-M
1 35865U 09049A   09296.75569010  .00000176  00000-0  10000-3 0   368
2 35865 098.7953 346.8256 0001947 353.0423 007.0726 14.21826552  5121
STERKH-2
1 35866U 09049B   09297.72867789  .00000178  00000-0  10000-3 0   352
2 35866 098.7959 347.8289 0002833 340.2273 019.8779 14.22297362  5267
FREGAT-I
1 35867U 09049C   09296.67401183  .00002266  00000-0  10000-3 0 00471
2 35867 097.3685 346.0741 0010586 155.0057 205.1526 15.22735169005475
/EX






More information about the Keps mailing list